SCP
-0 0 0 0 0 0 0 0 0 0 0 0 0 0 0 0 0 0 0 0 0 -0 -0 -0 0 0 0 0 0 0 0 0 0 0 0 0 0 0 0 0 0 0 -0
-0 -0 0 -0 -0 0 0 0 0 0 0 0 0 0 0 0 0 0 0 0 0 0 0 0 0 0 1 0 0 1 0 0 0 0 0 0 0 0 0 0 0 0 0
0 0 0 -0 0 0 0 0 0 0 0 0 0 0 0 0 0 0 0 0 0 0 0 0 0 0 0 0 -0 0 0 0 0 0 0 0 0 0 0 0 0 0 0
0 0 0 0 0 0 0 0 0 0 0 0 0 0 0 0 0 0 0 0 0 0 0 0 0 0 0 0 0 0 0 0 0 0 0 0 0 0 0 0 0 0 0
0 0 0 0 0 0 0 0 0 0 0 0 0 0 0 0 0 0 0 0 0 0 0 0 0 0 0 0 0 0 0 0 0 0 0 0 0 0 0 0 0 0 0
0 0 0 0 0 0 0 0 0 0 0 0 0 0 0 0 0 0 0 0 0 0 0 0 0 0 0 0 0 0 0 0 0 0 0 0 0 0 0 0 0 0 0
0 0 0 0 0 0 0 0 0 0 0 0 0 0 0 0 0 0 0 0 0 0 0 0 0 0 0 0 0 0 0 0 0 0 0 0 0 0 0 0 0 0 0
0 0 0 0 0 0 0 0 0 0 0 0 0 0 0 0 0 0 0 0 0 0 0 0 0 0 0 0 0 0 0 0 0 0 0 0 0 0 0 0 0 0 0
0 0 0 0 0 0 0 0 0 0 0 0 0 0 0 0 0 0 0 0 0 0 0 0 0 0 0 0 0 0 0 0 0 0 0 0 0 0 0 0 0 0 0
0 0 0 0 0 0 0 0 0 0 0 0 0 0 0 0 0 0 0 0 0 0 0 0 0 0 0 0 0 0 0 0 0 0 0 0 0 0 0 0 0 0 0
0 0 0 0 0 0 0 0 0 0 0 0 0 0 0 0 0 0 0 0 0 0 0 0 0 0 0 0 0 0 0 0 0 0 0 0 0 0 0 0 0 0 0
0 0 0 0 0 0 0 0 0 0 0 0 0 0 0 0 0 0 0 0 0 0 0 0 0 0 0 0 0 0 0 0 0 0 0 0 0 0 0 0 0 0 0
0 0 0 0 0 0 0 0 0 0 0 0 0 0 0 0 0 0 0 0 0 0 0 0 0 0 0 0 0 0 0 0 0 0 0 0 0 0 0 0 0 0 0
0 0 0 0 0 0 0 0 0 0 0 0 0 0 0 0 0 0 0 0 0 0 0 0 0 0 0 0 0 0 0 0 0 0 0 0 0 0 0 0 0 0 0
0 0 0 0 0 0 0 0 0 0 0 0 0 0 0 0 0 0 0 0 0 0 0 0 0 0 0 0 0 0 0 0 0 0 0 0 0 0 0 0 0 0 0
0 0 0 0 0 0 0 0 0 0 0 0 0 0 0 0 0 0 0 0 0 0 0 0 0 0 0 0 0 0 0 0 0 0 0 0 0 0 0 0 0 0 0
0 0 0 0 0 0 0 0 0 0 0 0 0 0 0 0 0 0 0 0 0 0 0 0 0 0 0 0 0 0 0 0 0 0 0 0 0 0 0 0 0 0 0
0 0 0 0 0 0 0 0 0 0 0 0 0 0 0 0 0 0 0 0 0 0 0 0 0 0 0 0 0 0 0 0 0 0 0 0 0 0 0 0 0 0 0
0 0 0 0 0 0 0 0 0 0 0 0 0 0 0 0 0 0 0 0 0 0 0 0 0 0 0 0 0 0 -0 0 0 0 0 0 0 0 0 0 0 0 0
0 0 0 0 0 0 0 0 0 0 0 0 0 0 0 0 0 0 0 0 0 0 0 0 0 0 0 0 0 -0 0 0 0 0 0 0 -0 0 0 0 0 0 0
0 0 0 0 0 0 0 0 0 0 0 0 0 0 0 0 0 0 0 0 0 0 0 0 0 0 0 0 0 0 0 0 0 -0 -0 0 0 0 0 0 0 0 0
0 0 0 0 0 0 0 0 0 0 0 0 0 0 0 0 0 0 0 0 0 0 0 0 0 0 0 0 0 0 0 -0 -0 -0 0 0 0 0 0 0 0 0 0
-0 -0 -0 -0 0 0 0 -0 0 0 0 0 0 0 0 0 0 0 0 0 0 0 0 0 0 0 0 0 0 0 0 0 0 0 0 0 0 0 0 0 0 0 0
-0 0 -0 -0 -0 0 0 0 0 0 0 0 0 0 0 0 0 0 0 0 0 0 0 0 0 0 0 0 0 0 0 0 0 0 0 0 0 0 0 0 0 0 0
0 0 0 0 0 0 -0 0 0 0 0 0 0 0 0 0 0 0 0 0 0 0 0 0 0 0 0 0 0 0 0 0 0 0 0 0 0 0 0 0 0 0 0
0 0 0 0 0 0 0 0 0 0 0 0 0 0 0 0 0 0 0 0 0 0 0 0 0 0 0 0 0 0 0 0 0 0 0 0 0 0 0 0 0 0 0
Wind_Speed_500mb
29 22 24 30 28 27 24 21 19 19 21 19 18 12 17 21 21 16 15 18 18 14 16 16 16 16 20 22 23 19 16 12 11 8 6 7 7 7 6 5 10 13 14
40 35 33 34 32 29 30 31 33 33 29 21 19 17 19 22 23 22 17 15 14 11 12 17 16 14 10 18 23 26 27 23 18 15 13 13 12 12 11 11 10 12 16
43 37 38 39 38 39 39 39 36 33 30 23 16 18 21 23 25 22 20 18 14 15 16 9 7 3 2 8 18 25 29 29 24 22 20 19 18 17 18 17 16 17 15
46 46 44 45 46 42 35 31 30 32 33 27 21 22 25 19 23 21 18 18 20 25 26 18 14 15 14 13 8 13 23 27 28 28 28 26 24 25 24 25 23 21 21
42 49 47 44 42 37 31 28 28 30 30 29 23 21 21 16 18 19 18 20 27 29 20 22 21 16 18 20 16 17 18 22 24 26 27 27 27 28 31 32 31 30 28
45 44 43 41 38 32 30 29 31 31 29 23 17 28 24 16 13 14 22 21 12 10 5 7 10 14 15 15 16 16 16 19 21 24 26 29 31 31 30 30 30 33 36
41 39 37 36 36 33 31 29 30 30 22 15 26 35 28 20 15 8 9 16 9 7 7 3 7 8 6 10 12 17 20 22 23 27 26 26 27 29 39 33 41 38 36
37 35 32 33 33 31 32 30 28 28 22 20 49 43 34 27 19 11 2 3 8 12 10 8 6 5 5 6 6 2 2 4 5 8 12 16 23 26 27 31 35 38 43
34 38 35 32 30 28 29 25 24 25 22 23 48 31 26 17 33 19 19 12 10 14 16 13 9 10 12 14 15 14 13 13 11 12 12 11 11 13 18 21 24 27 34
28 34 33 30 28 25 21 19 20 23 23 25 38 44 36 31 27 25 27 19 14 12 14 8 9 14 15 15 18 23 26 21 16 13 14 17 20 18 17 18 20 22 26
26 26 26 24 21 18 18 18 19 20 21 22 26 33 29 34 38 46 40 29 23 18 18 12 5 10 10 15 25 31 34 25 19 16 17 15 18 22 26 26 25 26 26
19 18 18 18 17 14 15 20 22 21 21 22 22 26 23 30 38 48 45 36 35 24 27 20 16 9 7 15 24 30 31 28 27 24 22 21 20 19 21 25 28 32 35
18 15 15 16 16 17 17 18 23 23 20 18 17 19 22 22 27 33 29 29 39 43 35 22 15 9 13 22 29 31 27 25 28 30 22 28 30 29 33 33 32 32 33
12 13 14 15 16 16 19 21 24 27 23 19 15 14 13 15 16 20 25 33 43 35 26 20 13 14 22 31 31 26 23 25 24 26 34 30 29 33 37 41 47 48 47
14 7 10 17 20 20 19 20 24 24 25 22 16 13 13 15 13 13 13 18 31 22 21 20 17 20 31 33 29 26 27 28 30 33 32 37 38 42 47 52 56 57 61
14 9 13 21 24 22 20 21 21 22 19 21 16 12 15 13 10 9 6 5 6 8 9 11 18 28 29 30 30 31 33 33 33 35 44 49 43 48 55 60 63 62 63
8 8 16 22 23 21 23 22 21 18 18 19 18 17 15 12 8 6 5 1 3 6 8 12 18 25 29 33 34 36 40 40 43 46 43 47 59 62 64 64 64 67 70
18 17 22 23 27 25 20 19 22 21 18 15 11 9 7 6 5 5 5 5 13 15 19 26 30 35 37 42 47 50 52 49 49 46 55 64 67 68 67 69 69 68 70
22 24 22 20 22 26 22 19 17 16 14 12 8 1 2 3 1 5 12 13 17 23 28 34 42 46 50 54 61 66 65 62 59 63 68 72 70 65 64 68 70 70 69
22 21 19 16 17 19 20 17 17 16 12 6 1 2 2 5 10 14 19 22 27 34 39 43 47 54 60 64 75 82 79 72 74 71 71 67 60 67 74 76 77 74 71
24 22 20 16 17 22 20 19 17 12 4 3 4 7 12 15 16 20 26 28 30 38 43 49 52 61 67 73 83 79 73 73 73 73 73 69 76 79 87 95 92 80 76
20 21 20 20 22 17 12 11 17 14 4 10 14 16 19 21 17 21 27 31 33 42 48 53 55 58 62 70 69 61 64 74 90 81 83 86 84 89 99 104 96 91 91
11 15 17 18 12 13 13 13 10 9 10 10 15 19 23 18 20 26 32 37 41 45 48 53 56 56 63 57 53 60 67 72 74 77 78 97 86 103 106 105 103 106 102
8 7 6 5 8 10 13 11 11 14 20 23 25 25 29 30 29 32 42 48 48 48 50 50 49 59 60 46 49 58 68 73 77 85 68 94 95 107 101 105 111 110 106
10 5 4 4 6 7 9 11 13 17 24 29 34 39 42 46 40 42 49 48 48 47 44 46 58 53 46 46 47 58 65 72 84 80 74 84 98 105 114 110 104 119 112
4 2 1 3 6 9 13 19 24 32 37 39 42 46 48 51 51 49 54 49 51 50 53 56 52 46 48 50 50 51 58 63 69 92 77 84 100 100 121 106 113 120 110
Wind_Direction_500mb
199 199 191 188 188 191 207 223 235 255 261 265 234 242 246 254 264 229 221 228 229 245 260 272 277 272 263 250 241 237 241 235 238 240 249 257 262 280 275 255 232 234 240
200 199 202 205 213 220 226 232 244 263 261 260 244 256 262 263 256 256 251 248 256 272 308 297 290 291 281 243 228 224 227 230 234 234 237 250 256 252 261 261 251 246 248
208 208 211 214 224 234 245 253 260 262 261 262 254 252 265 268 267 253 256 260 266 297 302 340 14 298 184 200 234 229 235 238 244 247 253 258 264 267 258 254 255 253 250
224 224 228 235 242 250 251 255 260 267 272 274 261 249 252 249 252 254 256 264 275 278 277 277 277 258 253 261 235 236 236 241 242 247 251 254 261 259 258 255 254 252 250
236 232 234 238 243 249 254 258 265 271 280 282 266 229 216 228 248 257 273 282 288 286 269 252 260 235 232 246 254 250 249 256 258 256 262 258 258 258 260 256 253 256 259
240 230 232 240 247 252 256 261 271 274 271 266 238 199 193 195 230 258 279 288 295 276 282 214 201 199 218 236 242 241 244 244 250 252 255 258 259 264 262 264 263 261 258
233 232 232 237 245 254 262 269 270 266 258 228 175 167 168 175 175 221 271 316 341 351 3 54 162 180 199 236 254 269 272 280 276 269 270 272 272 249 250 248 262 258 255
237 239 237 243 251 258 266 269 259 244 231 196 169 164 150 157 152 152 206 352 39 45 34 21 54 88 68 32 41 8 338 345 317 296 283 275 279 283 279 272 268 266 259
239 244 246 248 255 260 262 257 241 230 222 192 182 178 160 175 145 137 137 120 79 51 45 23 37 39 39 22 23 18 16 12 357 340 314 302 291 289 288 287 283 279 273
230 236 243 248 251 245 241 235 225 221 216 202 191 200 200 183 175 153 156 148 122 84 63 54 36 37 33 9 9 2 357 351 343 338 320 315 311 306 301 296 294 290 284
233 230 232 233 234 229 224 212 206 211 211 216 202 191 192 188 191 167 147 143 153 141 134 137 75 29 22 355 344 340 339 337 330 332 318 313 303 307 309 307 302 296 289
217 213 215 214 214 208 200 197 195 200 212 214 204 195 186 178 174 170 160 151 140 152 149 153 157 179 256 307 326 328 326 331 330 336 334 329 321 318 310 306 305 303 301
203 203 207 206 199 192 181 178 185 191 193 202 192 190 186 178 175 183 173 164 141 138 140 166 190 235 289 305 315 319 327 332 331 335 339 331 327 320 316 313 312 311 308
159 161 181 182 179 169 163 162 167 175 177 179 175 167 175 167 176 180 182 170 157 157 179 182 219 264 309 323 323 316 317 326 333 333 325 334 328 320 318 319 317 314 308
169 182 184 174 170 158 151 156 158 159 170 170 161 154 157 150 154 154 161 165 187 187 189 218 263 286 308 315 315 315 315 316 322 320 320 321 319 311 311 311 309 308 309
180 187 182 173 166 159 142 151 153 147 157 163 156 154 156 152 152 158 173 202 209 203 202 257 291 307 316 321 322 317 315 319 316 309 308 311 316 314 313 311 308 304 301
196 193 179 172 171 165 152 146 148 147 148 145 143 142 149 149 150 152 128 201 311 309 313 328 332 336 341 338 335 330 324 318 313 312 310 311 312 313 312 311 307 303 300
183 178 167 160 160 169 156 144 138 138 134 130 125 124 124 132 134 80 29 347 16 353 336 337 333 335 339 336 334 332 331 326 320 315 311 311 313 312 310 305 299 295 292
174 167 164 155 156 166 167 157 147 145 145 142 139 118 359 337 322 338 351 349 340 353 341 334 333 335 335 337 336 332 329 324 320 316 314 314 317 316 315 315 308 303 299
171 173 171 156 160 163 168 170 175 171 175 192 197 242 358 312 315 322 330 327 326 335 337 332 328 329 332 334 335 333 326 324 320 319 319 322 323 320 318 320 318 311 307
188 186 181 180 175 163 159 181 197 192 217 243 318 329 341 316 305 302 300 316 313 320 322 324 325 325 329 334 331 328 322 323 322 324 327 325 325 322 325 326 322 315 308
201 204 196 192 196 191 216 236 217 246 315 347 341 334 325 307 301 290 288 296 299 306 312 313 314 317 322 325 324 322 323 323 320 323 325 317 321 319 325 324 320 316 310
196 204 214 202 220 226 219 226 239 273 293 300 312 320 318 298 294 298 298 297 297 298 300 299 301 312 315 320 320 319 318 315 311 317 318 311 316 318 321 319 318 314 312
144 176 203 217 245 232 226 235 244 264 280 289 296 309 308 299 294 305 308 301 296 290 294 292 302 309 309 311 315 314 312 309 306 314 319 307 316 313 315 314 314 313 313
97 97 131 185 256 253 244 258 259 271 279 287 296 295 293 291 293 293 300 299 295 293 292 297 303 304 305 308 306 307 308 309 307 309 311 308 312 311 314 311 311 314 311
64 34 167 268 276 269 257 265 268 272 277 283 286 285 282 276 280 286 297 292 288 293 302 301 297 294 299 301 305 305 304 303 308 308 313 310 313 314 309 308 308 312 311
Wind_Speed_850mb
29 22 24 30 28 27 24 21 19 19 21 19 18 12 17 21 21 16 15 18 18 14 16 16 16 16 20 22 23 19 16 12 11 8 6 7 7 7 6 5 10 13 14
40 35 33 34 32 29 30 31 33 33 29 21 19 17 19 22 23 22 17 15 14 11 12 17 16 14 10 18 23 26 27 23 18 15 13 13 12 12 11 11 10 12 16
43 37 38 39 38 39 39 39 36 33 30 23 16 18 21 23 25 22 20 18 14 15 16 9 7 3 2 8 18 25 29 29 24 22 20 19 18 17 18 17 16 17 15
46 46 44 45 46 42 35 31 30 32 33 27 21 22 25 19 23 21 18 18 20 25 26 18 14 15 14 13 8 13 23 27 28 28 28 26 24 25 24 25 23 21 21
42 49 47 44 42 37 31 28 28 30 30 29 23 21 21 16 18 19 18 20 27 29 20 22 21 16 18 20 16 17 18 22 24 26 27 27 27 28 31 32 31 30 28
45 44 43 41 38 32 30 29 31 31 29 23 17 28 24 16 13 14 22 21 12 10 5 7 10 14 15 15 16 16 16 19 21 24 26 29 31 31 30 30 30 33 36
41 39 37 36 36 33 31 29 30 30 22 15 26 35 28 20 15 8 9 16 9 7 7 3 7 8 6 10 12 17 20 22 23 27 26 26 27 29 39 33 41 38 36
37 35 32 33 33 31 32 30 28 28 22 20 49 43 34 27 19 11 2 3 8 12 10 8 6 5 5 6 6 2 2 4 5 8 12 16 23 26 27 31 35 38 43
34 38 35 32 30 28 29 25 24 25 22 23 48 31 26 17 33 19 19 12 10 14 16 13 9 10 12 14 15 14 13 13 11 12 12 11 11 13 18 21 24 27 34
28 34 33 30 28 25 21 19 20 23 23 25 38 44 36 31 27 25 27 19 14 12 14 8 9 14 15 15 18 23 26 21 16 13 14 17 20 18 17 18 20 22 26
26 26 26 24 21 18 18 18 19 20 21 22 26 33 29 34 38 46 40 29 23 18 18 12 5 10 10 15 25 31 34 25 19 16 17 15 18 22 26 26 25 26 26
19 18 18 18 17 14 15 20 22 21 21 22 22 26 23 30 38 48 45 36 35 24 27 20 16 9 7 15 24 30 31 28 27 24 22 21 20 19 21 25 28 32 35
18 15 15 16 16 17 17 18 23 23 20 18 17 19 22 22 27 33 29 29 39 43 35 22 15 9 13 22 29 31 27 25 28 30 22 28 30 29 33 33 32 32 33
12 13 14 15 16 16 19 21 24 27 23 19 15 14 13 15 16 20 25 33 43 35 26 20 13 14 22 31 31 26 23 25 24 26 34 30 29 33 37 41 47 48 47
14 7 10 17 20 20 19 20 24 24 25 22 16 13 13 15 13 13 13 18 31 22 21 20 17 20 31 33 29 26 27 28 30 33 32 37 38 42 47 52 56 57 61
14 9 13 21 24 22 20 21 21 22 19 21 16 12 15 13 10 9 6 5 6 8 9 11 18 28 29 30 30 31 33 33 33 35 44 49 43 48 55 60 63 62 63
8 8 16 22 23 21 23 22 21 18 18 19 18 17 15 12 8 6 5 1 3 6 8 12 18 25 29 33 34 36 40 40 43 46 43 47 59 62 64 64 64 67 70
18 17 22 23 27 25 20 19 22 21 18 15 11 9 7 6 5 5 5 5 13 15 19 26 30 35 37 42 47 50 52 49 49 46 55 64 67 68 67 69 69 68 70
22 24 22 20 22 26 22 19 17 16 14 12 8 1 2 3 1 5 12 13 17 23 28 34 42 46 50 54 61 66 65 62 59 63 68 72 70 65 64 68 70 70 69
22 21 19 16 17 19 20 17 17 16 12 6 1 2 2 5 10 14 19 22 27 34 39 43 47 54 60 64 75 82 79 72 74 71 71 67 60 67 74 76 77 74 71
24 22 20 16 17 22 20 19 17 12 4 3 4 7 12 15 16 20 26 28 30 38 43 49 52 61 67 73 83 79 73 73 73 73 73 69 76 79 87 95 92 80 76
20 21 20 20 22 17 12 11 17 14 4 10 14 16 19 21 17 21 27 31 33 42 48 53 55 58 62 70 69 61 64 74 90 81 83 86 84 89 99 104 96 91 91
11 15 17 18 12 13 13 13 10 9 10 10 15 19 23 18 20 26 32 37 41 45 48 53 56 56 63 57 53 60 67 72 74 77 78 97 86 103 106 105 103 106 102
8 7 6 5 8 10 13 11 11 14 20 23 25 25 29 30 29 32 42 48 48 48 50 50 49 59 60 46 49 58 68 73 77 85 68 94 95 107 101 105 111 110 106
10 5 4 4 6 7 9 11 13 17 24 29 34 39 42 46 40 42 49 48 48 47 44 46 58 53 46 46 47 58 65 72 84 80 74 84 98 105 114 110 104 119 112
4 2 1 3 6 9 13 19 24 32 37 39 42 46 48 51 51 49 54 49 51 50 53 56 52 46 48 50 50 51 58 63 69 92 77 84 100 100 121 106 113 120 110
Wind_Direction_850mb
199 199 191 188 188 191 207 223 235 255 261 265 234 242 246 254 264 229 221 228 229 245 260 272 277 272 263 250 241 237 241 235 238 240 249 257 262 280 275 255 232 234 240
200 199 202 205 213 220 226 232 244 263 261 260 244 256 262 263 256 256 251 248 256 272 308 297 290 291 281 243 228 224 227 230 234 234 237 250 256 252 261 261 251 246 248
208 208 211 214 224 234 245 253 260 262 261 262 254 252 265 268 267 253 256 260 266 297 302 340 14 298 184 200 234 229 235 238 244 247 253 258 264 267 258 254 255 253 250
224 224 228 235 242 250 251 255 260 267 272 274 261 249 252 249 252 254 256 264 275 278 277 277 277 258 253 261 235 236 236 241 242 247 251 254 261 259 258 255 254 252 250
236 232 234 238 243 249 254 258 265 271 280 282 266 229 216 228 248 257 273 282 288 286 269 252 260 235 232 246 254 250 249 256 258 256 262 258 258 258 260 256 253 256 259
240 230 232 240 247 252 256 261 271 274 271 266 238 199 193 195 230 258 279 288 295 276 282 214 201 199 218 236 242 241 244 244 250 252 255 258 259 264 262 264 263 261 258
233 232 232 237 245 254 262 269 270 266 258 228 175 167 168 175 175 221 271 316 341 351 3 54 162 180 199 236 254 269 272 280 276 269 270 272 272 249 250 248 262 258 255
237 239 237 243 251 258 266 269 259 244 231 196 169 164 150 157 152 152 206 352 39 45 34 21 54 88 68 32 41 8 338 345 317 296 283 275 279 283 279 272 268 266 259
239 244 246 248 255 260 262 257 241 230 222 192 182 178 160 175 145 137 137 120 79 51 45 23 37 39 39 22 23 18 16 12 357 340 314 302 291 289 288 287 283 279 273
230 236 243 248 251 245 241 235 225 221 216 202 191 200 200 183 175 153 156 148 122 84 63 54 36 37 33 9 9 2 357 351 343 338 320 315 311 306 301 296 294 290 284
233 230 232 233 234 229 224 212 206 211 211 216 202 191 192 188 191 167 147 143 153 141 134 137 75 29 22 355 344 340 339 337 330 332 318 313 303 307 309 307 302 296 289
217 213 215 214 214 208 200 197 195 200 212 214 204 195 186 178 174 170 160 151 140 152 149 153 157 179 256 307 326 328 326 331 330 336 334 329 321 318 310 306 305 303 301
203 203 207 206 199 192 181 178 185 191 193 202 192 190 186 178 175 183 173 164 141 138 140 166 190 235 289 305 315 319 327 332 331 335 339 331 327 320 316 313 312 311 308
159 161 181 182 179 169 163 162 167 175 177 179 175 167 175 167 176 180 182 170 157 157 179 182 219 264 309 323 323 316 317 326 333 333 325 334 328 320 318 319 317 314 308
169 182 184 174 170 158 151 156 158 159 170 170 161 154 157 150 154 154 161 165 187 187 189 218 263 286 308 315 315 315 315 316 322 320 320 321 319 311 311 311 309 308 309
180 187 182 173 166 159 142 151 153 147 157 163 156 154 156 152 152 158 173 202 209 203 202 257 291 307 316 321 322 317 315 319 316 309 308 311 316 314 313 311 308 304 301
196 193 179 172 171 165 152 146 148 147 148 145 143 142 149 149 150 152 128 201 311 309 313 328 332 336 341 338 335 330 324 318 313 312 310 311 312 313 312 311 307 303 300
183 178 167 160 160 169 156 144 138 138 134 130 125 124 124 132 134 80 29 347 16 353 336 337 333 335 339 336 334 332 331 326 320 315 311 311 313 312 310 305 299 295 292
174 167 164 155 156 166 167 157 147 145 145 142 139 118 359 337 322 338 351 349 340 353 341 334 333 335 335 337 336 332 329 324 320 316 314 314 317 316 315 315 308 303 299
171 173 171 156 160 163 168 170 175 171 175 192 197 242 358 312 315 322 330 327 326 335 337 332 328 329 332 334 335 333 326 324 320 319 319 322 323 320 318 320 318 311 307
188 186 181 180 175 163 159 181 197 192 217 243 318 329 341 316 305 302 300 316 313 320 322 324 325 325 329 334 331 328 322 323 322 324 327 325 325 322 325 326 322 315 308
201 204 196 192 196 191 216 236 217 246 315 347 341 334 325 307 301 290 288 296 299 306 312 313 314 317 322 325 324 322 323 323 320 323 325 317 321 319 325 324 320 316 310
196 204 214 202 220 226 219 226 239 273 293 300 312 320 318 298 294 298 298 297 297 298 300 299 301 312 315 320 320 319 318 315 311 317 318 311 316 318 321 319 318 314 312
144 176 203 217 245 232 226 235 244 264 280 289 296 309 308 299 294 305 308 301 296 290 294 292 302 309 309 311 315 314 312 309 306 314 319 307 316 313 315 314 314 313 313
97 97 131 185 256 253 244 258 259 271 279 287 296 295 293 291 293 293 300 299 295 293 292 297 303 304 305 308 306 307 308 309 307 309 311 308 312 311 314 311 311 314 311
64 34 167 268 276 269 257 265 268 272 277 283 286 285 282 276 280 286 297 292 288 293 302 301 297 294 299 301 305 305 304 303 308 308 313 310 313 314 309 308 308 312 311